Temperature
7 7 7 7 8 9 8 9 9 10 11 11 11 11 12 12 12 13 13 14 16 16 17 17 17 17 17 17 17 17 16 16 16 16 15 15 15 15 15 15 15 14 14 14
6 7 7 8 9 9 9 9 10 11 11 11 11 11 12 12 12 13 14 15 16 16 16 17 17 17 17 17 17 17 16 16 16 16 15 15 15 15 15 15 15 14 14 14
6 7 8 9 9 9 9 8 9 10 11 11 11 11 11 12 12 13 14 15 15 16 16 16 17 17 17 17 17 16 16 16 16 16 15 15 15 15 15 15 15 14 14 14
7 7 8 8 8 9 9 9 10 10 10 9 10 9 10 11 11 11 13 14 15 15 15 16 16 16 16 16 16 16 16 15 15 15 15 15 15 14 14 14 14 14 14 14
6 7 8 8 8 9 9 9 9 10 9 9 9 9 9 10 10 11 12 13 15 15 15 15 15 15 15 15 15 15 15 14 14 14 14 14 14 14 13 13 13 13 13 13
6 7 7 8 9 9 8 8 7 7 8 8 8 8 8 8 10 11 11 13 14 15 14 14 14 14 14 14 14 13 13 13 13 13 13 13 12 12 12 12 12 12 12 12
6 6 7 8 8 9 9 8 7 7 7 7 7 8 9 9 9 10 11 12 13 13 13 13 13 13 13 13 12 12 12 12 12 12 11 11 11 11 11 11 11 11 11 11
6 6 6 7 8 8 8 8 7 7 6 6 7 7 8 9 9 10 11 11 12 12 12 12 12 12 12 12 11 11 11 11 11 11 11 10 10 10 10 10 10 10 10 10
6 6 6 7 7 8 7 7 7 6 6 6 6 6 7 8 8 9 9 9 10 11 11 11 11 11 11 11 11 11 10 10 10 10 10 10 9 9 9 9 9 9 9 9
7 7 7 7 8 7 7 6 6 6 6 7 7 7 7 9 9 9 7 8 9 10 10 11 11 11 11 10 10 10 10 10 9 9 9 9 8 8 8 8 8 8 8 8
6 7 7 7 7 7 7 7 7 6 6 6 6 7 8 8 8 7 7 8 8 9 10 10 10 10 10 10 10 9 9 9 9 8 8 8 7 7 7 7 7 7 7 7
6 6 6 6 6 7 7 7 6 6 5 5 5 7 9 7 6 6 7 8 9 10 10 10 10 10 10 10 9 9 8 8 8 7 7 6 6 6 6 6 6 6 6 6
6 6 6 6 6 6 7 7 7 6 5 4 4 7 8 7 8 8 8 9 9 10 10 10 10 10 10 9 9 8 8 7 6 6 5 5 5 5 5 5 5 5 5 5
7 6 6 6 7 6 6 6 6 6 6 5 5 6 8 9 9 8 9 9 10 10 10 10 10 10 9 9 8 7 7 6 5 4 4 4 4 4 4 4 4 4 4 4
6 5 5 6 7 6 6 6 6 6 6 6 6 6 8 9 9 9 9 9 9 10 10 10 10 10 9 9 8 7 6 5 4 3 3 3 3 3 3 3 3 3 3 4
6 5 5 5 6 6 5 5 5 6 6 6 6 6 7 9 9 9 9 9 9 10 11 11 10 10 9 8 7 6 5 4 3 2 2 2 2 1 2 2 2 3 3 3
4 4 5 4 5 6 5 5 5 5 5 6 7 8 8 8 7 9 10 10 11 11 11 11 11 10 9 8 7 5 4 3 2 2 1 1 1 1 1 1 2 2 2 2
4 4 3 3 5 4 6 7 6 6 6 6 6 7 7 8 10 11 11 11 11 11 11 11 11 10 9 7 6 5 4 2 2 1 0 0 0 0 1 1 1 1 1 1
4 4 3 3 3 4 5 6 6 5 6 6 6 7 7 8 8 8 10 11 11 12 11 11 10 9 8 7 6 5 3 2 1 1 0 0 0 0 0 1 1 1 1 1
5 5 4 4 5 5 7 7 7 6 6 7 6 6 6 6 6 7 10 11 11 11 11 10 9 9 8 7 6 5 4 3 2 1 1 1 0 1 1 1 1 1 1 1
5 5 4 4 5 4 6 6 7 6 7 7 7 7 6 5 7 9 10 10 10 10 10 9 9 8 7 6 6 5 4 3 2 2 1 1 1 1 1 1 1 1 1 1
4 4 4 4 5 5 7 6 6 6 7 7 7 7 7 7 8 8 9 10 10 9 9 9 8 8 7 6 6 5 4 3 3 2 2 2 2 1 1 1 1 1 1 1
4 4 4 4 5 6 6 6 7 6 6 7 7 7 7 7 8 8 9 9 9 8 8 8 8 7 6 6 6 5 4 3 3 3 2 2 2 1 1 1 1 1 1 1
3 3 3 3 4 5 6 6 6 6 6 6 7 7 7 8 8 8 8 8 8 8 8 7 7 7 6 6 6 5 4 4 3 3 2 2 2 2 1 1 1 1 1 1
3 3 3 3 3 4 6 5 5 5 6 6 7 7 7 7 8 8 8 8 8 7 7 7 7 6 6 6 5 5 4 4 3 3 2 2 2 2 1 1 1 1 1 1
1 1 2 2 3 2 3 4 4 5 5 5 6 6 7 7 7 7 7 7 7 7 7 7 6 6 6 5 5 4 4 4 3 3 3 2 2 2 1 1 1 1 1 0
Wind_Speed
5 5 9 9 7 5 8 8 6 4 7 10 12 8 6 8 10 12 11 9 8 7 2 1 2 3 5 4 4 3 3 2 3 2 3 3 3 3 3 5 8 10 11 11
5 6 6 8 6 6 9 9 7 3 6 8 7 8 6 8 11 11 12 11 9 6 3 2 2 4 5 5 5 5 4 3 2 2 2 2 1 1 2 2 3 5 6 7
4 4 8 8 7 6 5 10 8 6 4 3 5 4 8 8 9 9 10 9 8 9 9 6 4 5 6 6 5 6 6 5 4 2 2 2 2 1 1 1 2 3 4 5
2 4 7 9 6 6 4 6 8 8 7 1 3 4 7 9 10 13 13 10 10 9 9 7 7 6 6 5 6 7 7 7 6 5 3 2 1 1 1 2 3 4 5 4
2 4 8 9 7 6 5 6 6 5 6 2 1 3 7 5 11 16 15 13 11 10 10 10 8 7 6 5 6 7 8 8 7 7 6 4 2 1 2 2 4 4 4 5
2 2 2 5 5 5 7 8 8 6 4 3 6 6 8 7 10 9 10 11 11 10 10 8 7 7 6 6 6 6 8 7 7 7 7 5 4 3 3 3 4 4 3 3
3 3 2 3 7 3 5 7 4 2 1 6 4 6 9 8 8 8 9 8 9 10 11 11 10 8 7 7 6 6 7 7 6 6 6 5 3 2 2 2 3 3 3 3
5 3 1 1 5 7 6 7 7 6 6 4 3 8 8 7 6 7 8 7 8 10 10 11 10 9 8 8 7 6 7 6 5 5 4 4 4 2 2 2 2 2 2 3
6 4 2 2 2 8 7 4 5 5 3 2 6 7 9 6 7 6 6 6 9 10 10 10 9 8 8 7 6 6 6 5 4 4 3 4 4 3 3 3 3 2 3 3
4 5 3 2 4 5 6 9 6 5 5 4 6 6 5 7 8 6 6 7 9 9 9 9 8 8 6 6 5 5 5 4 3 3 3 3 4 4 4 3 4 4 4 4
3 5 4 3 4 6 5 5 5 5 4 5 4 7 6 7 7 9 9 7 9 10 10 9 8 7 7 6 5 5 4 4 3 3 3 4 4 4 4 4 5 5 5 6
3 4 4 2 2 1 3 6 7 6 5 4 4 7 6 5 8 8 7 7 8 8 8 8 8 7 7 6 5 4 3 3 3 3 3 4 4 4 5 5 5 6 6 6
5 5 5 2 1 1 3 4 5 4 4 6 6 8 4 3 4 2 5 7 7 8 8 7 7 7 7 6 5 4 3 2 2 3 3 4 4 4 5 5 5 6 6 7
4 4 4 7 4 6 6 7 8 7 6 7 9 9 8 7 5 2 5 8 8 8 9 9 8 7 7 6 5 4 3 3 3 3 3 3 3 4 4 5 6 6 6 7
4 3 2 2 1 4 6 8 12 13 11 10 9 10 12 9 7 6 7 8 8 8 9 10 9 8 7 7 6 5 4 4 4 4 3 3 3 4 5 6 6 6 7 7
3 4 2 1 0 3 5 9 12 15 13 15 13 15 9 8 5 5 8 10 11 11 11 10 9 9 9 8 7 6 5 5 4 4 4 4 4 5 5 6 6 7 7 7
3 5 3 2 2 2 7 10 13 8 9 10 17 17 7 8 9 11 11 12 14 13 12 12 12 11 10 9 8 7 6 5 5 5 4 4 5 5 5 6 7 7 6 6
6 5 3 2 2 6 8 2 6 9 10 11 11 9 8 13 12 10 10 13 13 12 11 11 10 10 8 8 7 7 7 6 5 5 5 5 5 6 6 6 6 6 5 5
5 6 4 3 3 8 8 4 5 6 7 8 12 14 11 8 5 7 9 11 12 11 9 9 9 8 9 9 9 8 7 6 6 5 5 5 5 6 6 6 5 5 5 5
3 4 4 3 2 5 5 3 2 3 5 4 6 10 8 4 6 8 6 8 8 7 6 8 9 8 10 9 9 9 8 7 6 6 5 5 5 6 6 6 5 4 4 4
3 2 4 4 4 7 7 4 3 1 5 6 5 7 6 7 8 4 3 5 5 6 7 9 10 9 9 10 10 9 8 7 7 6 6 6 5 5 6 5 4 4 4 3
6 5 5 5 5 7 4 2 3 5 5 6 6 5 4 5 3 0 2 5 6 7 7 9 9 8 8 10 10 9 8 7 7 7 6 6 6 5 5 5 4 4 4 3
4 6 5 7 8 4 2 3 3 3 5 5 5 6 2 1 1 1 2 4 5 6 7 7 8 8 8 9 9 9 8 8 8 7 7 6 6 5 5 5 5 4 4 3
3 0 2 5 6 6 5 3 4 5 5 5 4 4 2 1 1 2 3 4 4 5 6 7 8 9 9 9 9 8 8 9 9 8 7 6 6 6 5 5 5 5 5 4
4 3 3 5 6 8 6 6 7 8 7 5 5 3 2 1 1 2 3 4 5 5 6 7 9 9 9 9 9 9 9 10 10 9 8 7 7 7 6 6 5 6 5 6
1 1 2 5 4 5 9 9 9 8 8 7 5 4 3 2 2 2 2 3 4 5 6 7 8 9 8 9 10 10 11 11 11 9 9 7 7 6 6 5 4 8 8 9
Wind_Direction
161 163 182 178 162 136 136 131 140 161 169 178 198 209 208 190 211 237 248 251 249 245 259 35 63 91 98 92 108 120 137 136 139 142 166 188 216 220 221 227 232 232 233 231
141 189 172 141 140 127 134 141 148 138 160 168 188 214 215 204 214 226 235 238 234 225 197 158 88 75 92 95 91 91 91 86 102 138 151 167 173 203 218 226 233 238 242 238
155 161 152 142 140 137 145 160 158 145 103 90 135 230 233 232 225 231 235 233 226 209 198 185 154 116 99 89 86 90 79 69 57 63 92 74 60 30 10 341 313 309 286 262
112 145 151 150 149 134 141 160 142 133 128 153 162 235 251 228 237 237 233 226 221 209 191 182 166 141 115 97 86 83 76 64 49 51 74 98 124 247 321 335 331 335 343 331
132 146 152 161 155 134 140 125 114 117 121 108 153 213 270 223 234 239 232 221 215 204 189 180 167 145 119 103 91 84 76 61 48 51 61 72 66 10 337 343 343 344 346 352
75 65 123 148 137 125 120 86 65 57 86 224 209 196 265 225 221 237 232 220 208 191 179 163 144 129 114 101 94 89 82 65 50 54 54 60 58 26 8 359 351 344 339 343
79 56 30 107 119 112 115 107 89 77 192 242 208 210 248 241 228 229 243 236 204 180 167 160 154 147 134 120 107 97 91 74 55 56 52 45 42 33 10 340 336 339 343 343
131 148 128 89 150 155 156 137 154 171 199 246 226 233 252 255 263 256 258 243 187 175 170 166 161 150 140 130 118 107 97 85 63 58 51 38 30 24 3 349 342 341 335 325
144 148 86 75 99 134 140 157 145 122 131 210 251 278 300 275 271 263 253 208 185 175 170 162 152 146 141 132 124 118 109 94 70 57 54 43 29 24 12 4 4 355 348 345
128 129 127 116 95 40 144 142 117 129 160 233 270 267 253 280 273 270 241 212 188 170 164 157 151 145 137 130 121 110 106 100 79 59 47 47 24 18 17 27 27 21 14 16
101 121 126 128 165 158 120 137 137 148 176 184 251 269 230 244 273 271 251 216 184 174 169 162 152 143 135 129 125 116 103 93 78 62 52 42 26 25 35 41 35 34 35 34
117 111 127 120 48 37 163 168 150 168 216 198 209 268 268 260 275 262 237 194 178 173 165 156 150 146 146 143 137 124 110 97 85 75 64 51 39 40 46 46 43 46 49 44
135 121 123 124 208 199 200 184 176 143 150 180 196 257 286 307 324 261 204 183 172 165 159 156 159 164 162 157 151 141 129 121 110 95 82 65 54 54 54 54 55 57 60 57
112 124 169 185 201 177 192 199 185 175 206 221 225 247 285 305 317 271 203 189 180 179 176 175 178 177 171 167 164 159 156 151 137 117 104 87 74 72 72 71 69 67 67 64
111 149 193 238 215 167 201 207 203 211 217 224 236 232 246 257 261 241 208 191 184 190 193 193 190 183 177 173 172 169 166 156 144 138 128 113 101 93 90 84 79 75 72 71
112 133 119 339 316 204 243 231 219 225 230 237 250 257 240 250 247 226 205 195 199 205 206 200 190 185 185 182 177 173 169 163 154 151 144 134 120 107 101 95 89 83 77 71
122 129 131 266 331 1 265 230 212 210 211 210 238 250 232 235 234 228 214 205 209 210 206 199 196 192 186 181 173 173 167 156 151 149 145 139 130 119 110 105 98 91 84 77
131 121 126 142 90 242 245 260 207 221 242 227 242 258 235 233 239 233 214 205 212 210 204 199 190 181 171 165 162 158 154 154 151 149 147 143 137 127 117 110 103 97 89 81
138 131 127 143 235 278 296 281 195 200 266 237 240 256 255 254 263 261 228 210 212 208 197 188 174 163 157 160 158 152 155 155 154 157 154 149 142 135 129 121 114 109 103 89
95 115 131 162 235 259 267 301 189 146 291 285 244 259 259 201 231 253 220 200 197 176 159 151 145 144 156 160 155 156 162 164 168 163 154 146 143 140 135 129 123 113 112 111
144 157 179 195 240 269 265 278 138 184 278 309 290 272 251 214 229 255 178 162 152 141 139 143 148 156 164 159 158 164 169 176 166 154 150 147 143 140 137 129 121 124 123 122
182 187 199 187 217 257 281 130 174 245 291 309 308 297 269 248 255 229 139 137 136 134 138 148 153 157 159 162 165 171 180 168 155 153 154 154 151 153 146 138 136 139 147 152
207 199 199 202 223 250 299 235 271 291 297 305 314 319 305 267 230 146 136 140 145 149 153 156 157 158 165 173 176 182 177 160 160 162 165 163 161 161 155 160 165 168 177 186
293 285 236 271 277 294 293 299 324 316 295 300 309 317 315 297 214 164 156 160 163 164 167 164 164 174 184 187 189 184 166 164 167 174 177 175 177 181 179 184 185 188 194 202
300 329 301 281 304 325 324 338 333 325 322 320 326 328 312 273 246 203 186 185 184 183 178 178 187 196 196 189 193 183 171 171 177 182 184 186 191 191 195 202 204 203 209 202
305 336 302 281 311 300 295 307 315 309 310 308 306 310 322 293 264 245 219 202 191 191 186 192 201 206 200 192 196 189 181 180 182 189 193 195 194 193 196 201 223 237 228 234
Height
1478 1482 1484 1486 1489 1492 1497 1502 1506 1506 1506 1510 1513 1514 1514 1515 1518 1519 1518 1518 1519 1520 1522 1523 1525 1527 1529 1531 1533 1535 1536 1538 1540 1541 1542 1543 1544 1546 1547 1548 1548 1549 1549 1550
1481 1483 1484 1486 1489 1491 1496 1502 1505 1505 1505 1508 1512 1514 1512 1513 1514 1515 1514 1515 1516 1517 1519 1521 1523 1524 1526 1528 1530 1532 1534 1535 1537 1538 1539 1540 1541 1542 1543 1544 1544 1544 1545 1545
1480 1482 1483 1486 1490 1494 1497 1502 1504 1506 1507 1508 1512 1515 1512 1509 1510 1510 1510 1511 1512 1514 1516 1518 1520 1521 1523 1525 1527 1529 1530 1532 1534 1535 1536 1536 1537 1538 1539 1539 1540 1540 1540 1540
1481 1481 1483 1487 1492 1494 1499 1499 1502 1505 1511 1516 1514 1522 1512 1507 1507 1505 1504 1505 1507 1510 1512 1514 1516 1518 1520 1522 1524 1526 1527 1529 1530 1531 1532 1532 1533 1533 1534 1534 1534 1534 1534 1534
1482 1482 1484 1488 1491 1493 1498 1498 1503 1506 1512 1517 1517 1521 1513 1505 1504 1498 1497 1499 1502 1505 1508 1511 1513 1515 1517 1519 1521 1523 1524 1525 1526 1527 1527 1528 1528 1528 1528 1528 1529 1529 1529 1528
1483 1484 1486 1487 1490 1492 1497 1502 1508 1513 1516 1522 1519 1522 1513 1504 1496 1492 1491 1492 1495 1499 1503 1507 1510 1512 1514 1516 1518 1520 1521 1522 1523 1523 1523 1524 1524 1524 1524 1524 1524 1523 1523 1522
1485 1487 1487 1487 1492 1495 1497 1506 1518 1522 1526 1525 1518 1516 1504 1493 1489 1488 1487 1487 1490 1493 1498 1502 1505 1509 1511 1514 1516 1517 1518 1519 1520 1520 1520 1520 1520 1520 1519 1519 1519 1519 1518 1518
1486 1489 1489 1489 1490 1494 1498 1503 1515 1520 1525 1523 1517 1514 1498 1488 1485 1484 1484 1485 1486 1489 1494 1498 1502 1506 1509 1512 1514 1515 1516 1516 1517 1517 1516 1516 1516 1515 1515 1515 1514 1514 1514 1513
1485 1489 1490 1489 1490 1492 1500 1505 1507 1518 1521 1521 1518 1508 1497 1484 1482 1481 1481 1481 1482 1486 1491 1496 1500 1504 1507 1510 1511 1513 1513 1513 1513 1513 1513 1512 1512 1511 1511 1510 1510 1510 1509 1509
1481 1487 1489 1490 1490 1494 1495 1501 1512 1518 1521 1517 1510 1508 1500 1486 1482 1480 1480 1480 1481 1485 1489 1494 1498 1502 1505 1507 1509 1510 1510 1510 1510 1509 1508 1508 1507 1507 1507 1506 1506 1506 1505 1505
1480 1485 1490 1491 1492 1494 1499 1501 1504 1512 1514 1516 1515 1504 1488 1485 1482 1480 1478 1479 1481 1484 1488 1493 1497 1500 1503 1505 1506 1506 1507 1506 1506 1505 1504 1503 1503 1503 1503 1503 1503 1502 1502 1502
1481 1485 1489 1493 1495 1494 1494 1497 1503 1510 1514 1516 1515 1503 1481 1482 1479 1477 1477 1478 1481 1485 1489 1493 1496 1498 1500 1502 1503 1503 1503 1502 1501 1501 1500 1499 1499 1499 1499 1499 1499 1499 1499 1499
1480 1486 1491 1493 1497 1496 1495 1496 1497 1502 1509 1517 1516 1500 1480 1479 1477 1476 1477 1479 1481 1485 1488 1491 1493 1495 1497 1498 1499 1499 1499 1498 1497 1496 1496 1495 1496 1496 1496 1496 1496 1497 1497 1496
1479 1486 1490 1490 1489 1490 1493 1494 1495 1500 1503 1506 1503 1493 1483 1478 1476 1476 1477 1479 1481 1484 1486 1489 1491 1493 1494 1495 1496 1495 1495 1494 1493 1493 1492 1492 1493 1493 1494 1494 1494 1494 1495 1495
1480 1486 1488 1487 1486 1488 1489 1490 1491 1493 1492 1495 1490 1489 1479 1477 1475 1475 1475 1477 1479 1481 1484 1485 1487 1489 1491 1492 1492 1492 1491 1490 1490 1489 1489 1490 1490 1491 1491 1492 1492 1493 1493 1493
1481 1486 1488 1489 1487 1488 1489 1488 1488 1487 1486 1485 1484 1479 1474 1473 1472 1472 1472 1474 1475 1477 1479 1482 1484 1486 1487 1488 1488 1488 1487 1487 1487 1487 1487 1487 1488 1489 1489 1490 1491 1491 1492 1492
1484 1487 1491 1493 1490 1486 1489 1479 1480 1480 1477 1478 1476 1468 1469 1469 1468 1467 1467 1469 1470 1472 1475 1478 1480 1482 1484 1485 1485 1485 1484 1484 1484 1484 1485 1485 1486 1487 1488 1489 1490 1490 1491 1491
1484 1488 1494 1497 1492 1496 1478 1471 1471 1473 1471 1471 1467 1464 1463 1462 1461 1461 1462 1464 1465 1468 1471 1474 1476 1478 1480 1481 1481 1481 1481 1481 1481 1482 1483 1484 1485 1485 1487 1488 1489 1490 1490 1491
1481 1487 1495 1497 1496 1489 1476 1469 1470 1472 1469 1464 1463 1460 1459 1458 1459 1457 1457 1459 1461 1464 1467 1470 1473 1475 1476 1477 1478 1478 1478 1479 1479 1480 1481 1482 1483 1484 1486 1487 1488 1489 1490 1491
1482 1484 1490 1493 1490 1486 1473 1467 1466 1469 1468 1462 1460 1458 1456 1457 1459 1453 1452 1454 1457 1460 1463 1466 1469 1471 1473 1474 1475 1475 1476 1477 1478 1478 1480 1481 1482 1484 1485 1487 1488 1489 1490 1490
1484 1485 1487 1488 1487 1482 1470 1466 1467 1473 1469 1461 1458 1455 1453 1453 1451 1450 1450 1452 1454 1457 1460 1463 1466 1468 1470 1471 1472 1473 1474 1475 1477 1477 1479 1480 1481 1483 1484 1486 1487 1488 1489 1489
1483 1485 1486 1485 1485 1482 1467 1467 1469 1468 1463 1460 1456 1454 1451 1449 1449 1449 1449 1450 1452 1455 1458 1460 1463 1465 1467 1468 1470 1471 1473 1474 1475 1477 1478 1479 1481 1482 1484 1485 1486 1487 1488 1488
1480 1480 1480 1480 1476 1468 1467 1466 1466 1464 1462 1459 1457 1454 1451 1450 1449 1449 1450 1451 1452 1454 1456 1458 1460 1462 1464 1466 1468 1470 1472 1473 1474 1475 1477 1478 1480 1481 1483 1484 1485 1486 1486 1487
1478 1476 1477 1475 1469 1467 1465 1464 1463 1462 1461 1458 1456 1454 1452 1451 1450 1450 1451 1451 1452 1454 1455 1457 1458 1460 1462 1464 1466 1468 1470 1471 1472 1474 1475 1477 1478 1480 1481 1482 1483 1484 1484 1484
1480 1477 1477 1474 1470 1466 1462 1463 1462 1460 1458 1457 1455 1454 1452 1451 1451 1451 1451 1451 1452 1453 1454 1455 1456 1458 1460 1462 1464 1465 1467 1468 1470 1472 1473 1475 1476 1477 1478 1479 1480 1481 1482 1482
1481 1481 1480 1476 1472 1471 1465 1462 1461 1458 1456 1455 1453 1452 1451 1451 1450 1450 1449 1450 1450 1451 1451 1452 1453 1455 1456 1458 1460 1462 1463 1465 1467 1468 1470 1471 1473 1474 1475 1476 1477 1478 1479 1479